Location: Conflandey
(47.7287°N, 6.0456°E)
Time: 03:03:29
(UTC+00:00)

X-37B - Pass Details

Date: 24 October 2021
Orbit: 330 x 341 km, 45.0° (Epoch: 20 November)

Event Time Altitude Azimuth Distance (km) Brightness Sun altitude
Rises 17:38:37 0° 272° (W) 2,127 6.4 -12.0°
Reaches altitude 10° 17:40:44 10° 261° (W) 1,286 4.7 -12.3°
Maximum altitude 17:43:20 31° 197° (SSW) 632 1.8 -12.8°
Enters shadow 17:45:16 15° 139° (SE) 1,041 2.4 -13.1°
